Back to catalog

STARLINK-30498

AliveCommunicationsVLEO
NORAD 57971·PAYLOAD·🇺🇸 United States

Launched Sep 30, 2023 from Cape Canaveral Space Force Station

Loading…

Next Passes (next 24 hours)

TLE

FreshSource: CelesTrak SupGP

Epoch: Sep 14, 2026, 21:33 UTC

1 57971C 23151H   26257.89840278 -.00078387  00000+0 -28388-2 0  2571
2 57971  43.0033 347.4099 0001454 268.5879  97.5274 15.27622345    11

Track STARLINK-30498 in real time with AllMySat

Download on the App Store